Other Public Products
Issued by NWS Grand Forks, ND

Home | Current Version | Previous Version | Text Only | Print | Product List | Glossary Off
Versions: 1 2 3 4 5 6 7 8 9 10 11 12 13 14 15 16 17 18 19 20 21 22 23 24 25 26 27 28 29 30 31 32 33 34 35 36 37 38 39 40 41 42 43 44 45 46 47 48 49 50

000
FPUS83 KFGF 010931
OPUFGF
PRAIRIE TO PINES WEATHER ROUNDUP
NATIONAL WEATHER SERVICE EASTERN NORTH DAKOTA/GRAND FORKS ND
400 AM CDT WED OCT 01 2014

 **SATELLITE DATA USED TO AUGMENT SKY COVER AT AUTOMATED STATIONS**
 *****  WEATHER ACROSS EASTERN NORTH DAKOTA  *****

CITY           SKY/WX    TMP DP  RH WIND       PRES   REMARKS
GRAND FORKS    CLOUDY    62  56  80 S20G28    29.50R
GRAND FORKS AF CLOUDY    62  56  83 S26G33    29.49R
GRAND CITY NWS   N/A     61 N/A N/A S18         N/A
BUXTON           N/A     61  59  93 SE14G28     N/A
DEVILS LAKE    CLOUDY    55  46  71 SW23G30   29.43R
FARGO          MOCLDY    62  57  83 S16G25    29.59R
WAHPETON ARPT  MOSUNNY   57  54  88 S16       29.64S
$$

 *****  WEATHER ACROSS CENTRAL AND WESTERN NORTH DAKOTA  *****

CITY           SKY/WX    TMP DP  RH WIND       PRES   REMARKS
JAMESTOWN      CLOUDY    57  51  80 SW13G22   29.53S
BISMARCK       CLOUDY    55  53  93 SW7       29.54R
MINOT          CLOUDY    51  49  92 W10       29.42S
MINOT AFB      CLOUDY    50  50 100 W10       29.42S
GARRISON         N/A     52  51  97 W9        29.46S
WILLISTON      CLOUDY    54  50  86 W14G29    29.50R
DICKINSON      CLOUDY    54  50  86 W26G36    29.57R
HETTINGER      CLOUDY    51  49  92 W15       29.65R
$$

 *****  OTHER OBSERVATIONS NORTHEAST NORTH DAKOTA  *****

CITY           SKY/WX    TMP DP  RH WIND       PRES   REMARKS
WALHALLA         N/A     57  57 100 S14G21    29.40F
LANGDON        CLOUDY    55  54  94 S23G32    29.39S FOG
CAVALIER       CLOUDY    59  55  88 S16       29.42F
GRAFTON        CLOUDY    59  55  88 S20G32    29.46S
CANDO          CLOUDY    54  52  94 SW20G26   29.40R
FORT TOTTEN    NOT AVBL
ROLLA          CLOUDY    54  54 100 SW18G24   29.35R
RUGBY          CLOUDY    50  50 100 W15       29.40R
 ***** THE ABOVE OBSERVATIONS ARE NON NWS ARE NOT QUALITY
        CONTROLLED AND MAY MIS-REPORT RAIN FOR SNOW...
$$

 *****  OTHER OBSERVATIONS SOUTHEAST NORTH DAKOTA *****

CITY           SKY/WX    TMP DP  RH WIND       PRES   REMARKS
COOPERSTOWN    NOT AVBL
VALLEY CITY    CLOUDY    55  55 100 SW14      29.55R
OAKES            N/A     55  54  94 S18G24    29.62R
GWINNER        SUNNY     59  54  82 SW15G21   29.63R
BUFFALO          N/A     58  50  75 S14         N/A
WYNDMERE         N/A     61  57  88 S8          N/A
 ***** THE ABOVE OBSERVATIONS ARE NON NWS ARE NOT QUALITY
       CONTROLLED AND MAY MIS-REPORT RAIN FOR SNOW...
$$

  *****  WEATHER ACROSS NORTHERN MINNESOTA  *****

CITY           SKY/WX    TMP DP  RH WIND       PRES   REMARKS
FLAG ISLAND    CLOUDY    52  46  82 SE22      29.64F
WARROAD        MOCLDY    54  48  82 SE20G29   29.62F
ROSEAU         CLOUDY    55  48  76 SE20G29   29.59F
HALLOCK        CLOUDY    61  54  77 S22G32    29.47F
THF RVR FALLS  CLOUDY    59  52  77 SE21G30   29.56F
HALSTAD          N/A     61  57  88 S21         N/A
FOSSTON        MOCLDY    55  50  82 S21G26    29.62S
BAUDETTE       MOCLDY    48  43  82 SE10      29.69F
WASKISH        CLOUDY    52  46  82 SE14G22   29.69F
CROOKSTON      PTCLDY    63  57  82 S25G31    29.55S
$$
  *****  WEATHER ACROSS CENTRAL AND WEST MINNESOTA  *****

CITY           SKY/WX    TMP DP  RH WIND       PRES   REMARKS
BEMIDJI        CLOUDY    52  48  86 SE14G25   29.69F
PARK RAPIDS    CLOUDY    52  48  86 SE18      29.71F
WADENA         CLOUDY    54  48  82 SE14      29.72R
DETROIT LAKES  CLOUDY    57  54  88 S16       29.66S
MOORHEAD       NOT AVBL
FERGUS FALLS   CLOUDY    61  57  88 S21G28    29.68R
ELBOW LAKE     CLOUDY    59  56  91 S16G23    29.69S
MORRIS MN      CLEAR     61  57  88 SE13      29.69F
STAPLES        CLOUDY    50  46  87 SE10G17   29.74F
WHEATON        CLOUDY    57  55  94 SE9       29.68S
$$
  *****  WEATHER ELSEWHERE ACROSS MINNESOTA  *****

CITY           SKY/WX    TMP DP  RH WIND       PRES   REMARKS
DULUTH         CLOUDY    48  43  82 SE13      29.88S
INTRNTL FALLS  MOCLDY    48  43  82 SE9       29.77F
ELY            CLOUDY    45  43  93 SE6       29.85F
CLOQUET        CLOUDY    46  43  87 E9        29.86F
BRAINERD       CLOUDY    50  46  86 SE8       29.79F
HIBBING        PTCLDY    48  43  82 SE9       29.84F
ALEXANDRIA     CLOUDY    57  55  93 SE15G23   29.74F FOG
SAINT CLOUD    CLOUDY    53  47  79 SE13      29.81R
MINNEAPOLIS    MOCLDY    50  44  80 SE13G22   29.85F
$$

  *****  WEATHER ACROSS SOUTH DAKOTA  *****

CITY           SKY/WX    TMP DP  RH WIND       PRES   REMARKS
SIOUX FALLS    CLOUDY    63  60  90 S9        29.72F
BROOKINGS      NOT AVBL
WATERTOWN      CLOUDY    61  59  93 S14       29.69R
HURON          MOCLDY    61  59  93 S7        29.67F
SISSETON         N/A     62  59  90 SW14      29.63S
ABERDEEN       CLEAR     56  50  80 S10       29.65R
MITCHELL       CLOUDY    63  61  93 S10       29.68F
PIERRE         MOCLDY    55  47  74 SW6       29.66S
MOBRIDGE       PTCLDY    55  51  86 SW6       29.59S
RAPID CITY     CLOUDY    53  46  77 W6        29.75R
$$

  *****  SOME WEATHER IN NEARBY STATES *****

CITY           SKY/WX    TMP DP  RH WIND       PRES   REMARKS
GLASGOW MT     CLOUDY    50  46  86 W18G29    29.66R
GREAT FALLS MT CLOUDY    43  40  89 SW8       29.91S
CHEYENNE WY    CLEAR     47  35  63 W12       29.89S
SCOTTSBLUFF NE CLEAR     46  44  93 NW3       29.82R
OMAHA NE       LGT RAIN  63  60  90 SE10      29.70F
DES MOINES IA  RAIN      62  59  90 E8        29.81F FOG
DAVENPORT IA   NOT AVBL
CHICAGO IL     CLOUDY    54  46  74 SE6       30.00S
EAU CLAIRE WI  CLOUDY    47  42  83 SE8       29.94F
LA CROSSE WI   CLOUDY    50  44  80 SE8       29.95F
$$

  *****  SOME NATIONAL WEATHER *****

CITY           SKY/WX    TMP DP  RH WIND       PRES   REMARKS
LA GUARDIA NY  CLOUDY    62  57  83 N8        29.98S
RALEIGH NC     PTCLDY    57  55  93 CALM      29.95R FOG
ATLANTA GA     PTCLDY    67  64  90 W5        29.95R
NEW ORLEANS LA PTCLDY    77  72  84 CALM      29.87S
OKLAHOMA CITY  MOCLDY    72  66  81 S14       29.73F
ALBUQUERQUE NM CLEAR     56  33  42 CALM      29.97R
SALT LAKE CITY CLOUDY    50  40  68 N6        29.97S
LOS ANGELES CA PTCLDY    66  62  87 CALM      29.77S
BOISE ID       CLEAR     48  39  71 W10       30.06R
SEATTLE WA     CLOUDY    57  49  74 CALM      30.19S
$$

*** WEATHER ACROSS MANITOBA...SASKATCHEWAN AND ONTARIO ***
                ***ONTARIO***

CITY           SKY/WX    TMP DP  RH WIND       PRES   REMARKS
GERALDTON      CLEAR     34  34 100 SE2       29.99F
THUNDER BAY    CLOUDY    43  41  93 VRB5      29.96F
SIOUX LOOKOUT  PTCLDY    43  39  87 S9        29.81F
TORONTO        CLOUDY    59  54  82 E8        30.04R
BIG TROUT LK   CLEAR     43  39  87 S14       29.81F
PICKLE LAKE    NOT AVBL
DRYDEN         CLOUDY    46  41  81 S15G25    29.77F
KENORA         MOCLDY    50  43  76 SE14G21   29.68F
$$
                *** MANITOBA***

CITY           SKY/WX    TMP DP  RH WIND       PRES   REMARKS
BRANDON        LGT RAIN  50  50 100 NE13      29.36F
DAUPHIN        LGT RAIN  50  50 100 NE5       29.41F
ISLAND LAKE    PTCLDY    46  43  87 SE9       29.66F
PILOT MOUND      N/A     55  54  94 SE21G28     N/A
THE PAS        CLOUDY    50  50 100 E5        29.47F
THOMPSON       CLOUDY    50  50 100 E3        29.56F
WINNIPEG       LGT RAIN  55  50  82 SE20G30   29.46F
LYNN LAKE      FOG       48  48 100 SW3       29.52F VSB 1/2
CHURCHILL      CLOUDY    43  41  93 S15       29.66F
GILLAM         PTCLDY    43  41  93 SE7       29.66F
$$
                ***SASKATCHEWAN***

CITY           SKY/WX    TMP DP  RH WIND       PRES   REMARKS
ESTEVAN        LGT RAIN  50  50 100 W6        29.44F FOG
KINDERSLEY     CLOUDY    46  43  87 NW13G20   29.69R
LLOYDMINSTER   MOCLDY    46  43  87 NW12G18   29.70S
PRINCE ALBERT  CLOUDY    52  48  87 NW10      29.53F
REGINA         LGT RAIN  50  50 100 W9        29.48S
YORKTON          N/A     48  48 100 W2        29.43


USA.gov is the U.S. government's official web portal to all federal, state and local government web resources and services.